Regional Weather Roundup
Issued by NWS

Home | Current Version | Previous Version | Text Only | Print | Product List | Glossary Off
Versions: 1 2 3 4 5 6 7 8 9 10 11 12 13 14 15 16 17 18 19 20 21 22 23 24 25 26 27 28 29 30 31 32 33 34 35 36 37 38 39 40 41 42 43 44 45 46 47 48 49 50

695
ASUS45 KCYS 111810
RWRWY

WYOMING REGIONAL WEATHER ROUNDUP
NATIONAL WEATHER SERVICE CHEYENNE WY
1100 AM MST THU FEB 11 2016

NOTE:  "FAIR" INDICATES FEW OR NO CLOUDS BELOW 12,000 FEET
WITH NO SIGNIFICANT WEATHER AND/OR OBSTRUCTIONS TO VISIBILITY.

WYZ001-111900-
YELLOWSTONE NATIONAL PARK

CITY           SKY/WX    TMP DP  RH WIND       PRES   REMARKS
LK YELLOWSTONE   N/A     33  20  58 CALM      30.36S
6HR MIN TEMP:  17; 6HR MAX TEMP:  33;

W YELLOWSTONE  NOT AVBL

$$
WYZ002>013-054>058-071-098>099-111900-
NORTHERN WYOMING

CITY           SKY/WX    TMP DP  RH WIND       PRES   REMARKS
JACKSON        PTSUNNY   19  18  93 CALM      30.39S
CODY           FAIR      54  21  28 N15G21    30.17F
GREYBULL       FAIR      44  27  51 N3        30.18R
6HR MIN TEMP:  28; 6HR MAX TEMP:  44;

WORLAND        FAIR      42  29  59 SW6       30.18R
6HR MIN TEMP:  28; 6HR MAX TEMP:  42;

SHERIDAN       PTSUNNY   54  25  32 NW21      30.12F
6HR MIN TEMP:  35; 6HR MAX TEMP:  54;

BUFFALO        FAIR      51  26  37 N20G40    30.13S
6HR MIN TEMP:  40; 6HR MAX TEMP:  51;

GILLETTE       FAIR      50  28  42 NW18      30.11R
6HR MIN TEMP:  36; 6HR MAX TEMP:  50;

HULETT         FAIR      50  30  46 NW13G29   30.08R
NEWCASTLE      FAIR      48  25  40 NW21G28   30.08S

$$
WYZ014>020-022>026-101>103-111900-
CENTRAL WYOMING

CITY           SKY/WX    TMP DP  RH WIND       PRES   REMARKS
BIG PINEY      FAIR      31  20  63 CALM      30.36S
6HR MIN TEMP:  12; 6HR MAX TEMP:  31;

PINEDALE       FAIR      34  21  60 E5        30.36S WCI  30
DUBOIS         FAIR      46  18  31 NW41G49   30.21S
LANDER         FAIR      50  21  32 W6        30.18R
6HR MIN TEMP:  26; 6HR MAX TEMP:  50;

RIVERTON       FAIR      42  21  43 VRB3      30.19R
6HR MIN TEMP:  26; 6HR MAX TEMP:  42;

CASPER         FAIR      41  22  46 SW17G36   30.19R
6HR MIN TEMP:  35; 6HR MAX TEMP:  41;

DOUGLAS        NOT AVBL

$$
WYZ021-027>030-104>119-111900-
SOUTHERN WYOMING

CITY           SKY/WX    TMP DP  RH WIND       PRES   REMARKS
EVANSTON       FAIR      33  15  47 S6        30.41R WCI  28
6HR MIN TEMP:  22; 6HR MAX TEMP:  33;

KEMMERER       FAIR      36  18  48 W9        30.40S WCI  29
FORT BRIDGER   CLEAR     41  23  48 W23G29    30.40R
ROCK SPRINGS   FAIR     N/A N/A N/A MISG      30.37S
6HR MIN TEMP:  28; 6HR MAX TEMP:  39;

DIXON          FAIR      28  17  62 CALM      30.42S
RAWLINS        FAIR      36  20  52 SW26G39   30.28S WCI  24
6HR MIN TEMP:  31; 6HR MAX TEMP:  36;

SARATOGA       FAIR      39  21  48 SW15G24   30.32F WCI  31
LARAMIE        PTSUNNY   46  21  37 W7        30.21F
6HR MIN TEMP:  34; 6HR MAX TEMP:  46;

CHEYENNE       FAIR      51  19  28 NW23G33   30.15R
6HR MIN TEMP:  43; 6HR MAX TEMP:  52;

TORRINGTON     FAIR      54  21  27 NW22      30.12R
6HR MIN TEMP:  29; 6HR MAX TEMP:  55;

PINE BLUFFS    FAIR      52  23  32 NW29G36   30.12F

$$




USA.gov is the U.S. government's official web portal to all federal, state and local government web resources and services.